OpenBCM V2.0.3 (Linux)

Packet Radio Mailbox

IZ3LSV

[San Dona' di P. JN]

 Login: GUEST





  
I0OJJ  > AMSAT    24.06.26 07:10l 333 Lines 15661 Bytes #999 (0) @ WW
BID : 26R_IR0EQ
Subj: 2Line Orbital Elements
Path: IZ3LSV<ED1ZAC<LU4ECL<LU9DCE<VE3TOK<IR0AAB<I0OJJ<IR0EQ
Sent: 260612/0026z @:IR0EQ.ITA.EU [Rome] $:26R_IR0EQ

>From i0ojj%ir0eq.ita.eu@i0ojj.ampr.org Fri Jun 12 02:31:25 2026
Received: from i0ojj.ampr.org by i0ojj.ampr.org (JNOS2.0q.1) with SMTP
	id AA17062271 ; Fri, 12 Jun 2026 02:31:25 +0200
Message-Id: <26R_IR0EQ@i0ojj.bbs>
>From: i0ojj@ir0eq.ita.eu
X-JNOS-User-Port: Telnet   (i0ojj @ 44.27.18.9)  ->   Sending message

>From i0ojj@rgate.ampr.org Fri Jun 12 02:26:25 2026
Received: from rgate.ampr.org by rgate.ampr.org (JNOS2.0q.1) with SMTP
	id AA2835 ; Fri, 12 Jun 2026 02:26:25 +0200
Received: by rgate.ampr.org with SMTP
	id AA2832 ; Fri, 12 Jun 2026 02:25:47 +0200
Message-Id: <2833@rgate.ampr.org>
>From: i0ojj@rgate.ampr.org

SB KEPS @ AMSAT  $ORB26163.1
2Line Orbital Elements 26163.AMSAT

QST de W1STR

AMSAT Orbital Elements for Amateur Satellites in TLE Format
>From Orbital Analysis Office
New England Sci-Tech STEM Education Center
Natick MA June 12, 2026
To all radio amateurs


These element sets describe the orbits of various satellites 
in use by the amateur radio community. For details see:
www.amsat.org/keplerian-elements-formats/

A daily update of element sets is available at:
www.amsat.org/tle/daily-bulletin.txt
or without bulletin text:
www.amsat.org/tle/dailytle.txt


AO-07
1 07530U 74089B   26162.65147906 -.00000028  00000-0  11383-3 0  9998
2 07530 101.9901 175.8403 0012513 140.4231 346.6371 12.53697989359829
UO-11
1 14781U 84021B   26162.71749374  .00001229  00000-0  13072-3 0  9995
2 14781  97.8055 128.3534 0007126 190.9158 169.1907 14.90769946256317
LO-19
1 20442U 90005G   26162.53069412  .00000105  00000-0  54261-4 0  9991
2 20442  98.8852 184.1803 0010820 218.5501 141.4911 14.34121495901580
AO-27
1 22825U 93061C   26162.68565860  .00000075  00000-0  45342-4 0  9993
2 22825  98.6880 230.1011 0009459 113.9652 246.2522 14.30940798706216
FO-29
1 24278U 96046B   26162.54420303  .00000014  00000-0  46335-4 0  9996
2 24278  98.5245  12.1894 0350827 111.0367 252.8667 13.53273928472403
GO-32
1 25397U 98043D   26162.58543429  .00000048  00000-0  41012-4 0  9991
2 25397  99.0065 155.2028 0000734 176.4907 183.6276 14.24427354450534
ISS
1 25544U 98067A   26162.83551936  .00007284  00000-0  13937-3 0  9994
2 25544  51.6334 326.5798 0004934 175.2433 184.8603 15.49179015570924
NO-44
1 26931U 01043C   26162.64152601  .00000072  00000-0  57659-4 0  9996
2 26931  67.0509 258.6152 0006100 264.4327  95.6080 14.31954152289657
SO-50
1 27607U 02058C   26162.55839360  .00000916  00000-0  12536-3 0  9999
2 27607  64.5506 146.4007 0075403 263.5157  95.7360 14.83034770263626
CO-55
1 27844U 03031E   26162.55782411  .00000255  00000-0  12921-3 0  9992
2 27844  98.6735 171.1873 0009139 194.6488 165.4428 14.24332340190876
RS-22
1 27939U 03042A   26162.85688567  .00001166  00000-0  18781-3 0  9991
2 27939  98.3473 347.0658 0010045 288.8379 182.7006 14.73459418214764
CO-65
1 32785U 08021C   26162.87915317  .00004765  00000-0  30197-3 0  9999
2 32785  97.8271 144.1871 0010285  55.0183 305.2009 15.09404107984398
CO-66
1 32791U 08021J   26162.25964503  .00015274  00000-0  48820-3 0  9998
2 32791  97.7517 159.8749 0001967  23.1856 336.9473 15.32546772986382
RS-30
1 32953U 08025A   26162.86738984 -.00000003  00000-0 -93499-4 0  9990
2 32953  82.5050 358.7505 0019066 325.8599  34.1253 12.43178812819036
SRMSAT
1 37841U 11058D   26162.51581192  .00000355  00000-0  48954-4 0  9994
2 37841  19.9715  93.7945 0011909 141.4141  27.1536 14.11574372757019
ZACUBE-1
1 39417U 13066B   26162.80818086  .00003114  00000-0  24384-3 0  9999
2 39417  97.8084 125.1158 0040240 266.5236  93.1385 15.01156095679920
Delfi-N3xt
1 39428U 13066N   26162.68974664  .00004026  00000-0  35436-3 0  9995
2 39428  97.8343  83.0068 0073188 224.2839 135.2512 14.95029108673806
GOMX-1
1 39430U 13066Q   26162.80655015  .00002336  00000-0  35370-3 0  9997
2 39430  97.6494   3.6098 0130200  94.6175 266.9916 14.69441735669121
LO-74
1 39440U 13066AA  26162.77121377  .00003584  00000-0  33291-3 0  9999
2 39440  97.8899 111.7263 0058871  46.5267 314.0826 14.93717789676180
AO-73
1 39444U 13066AE  26162.55441071  .00005554  00000-0  34659-3 0  9993
2 39444  97.8262 133.8824 0035145 220.5848 139.2760 15.09420112678819
DTUSAT-2
1 40030U 14033W   26162.55772759  .00006319  00000-0  34274-3 0  9994
2 40030  98.0858 159.9274 0006276 248.7752 111.2808 15.14945636651838
LILACSAT-2
1 40908U 15049K   26162.85412267  .00016370  00000-0  28065-3 0  9993
2 40908  97.4658 199.4931 0005266 270.7018  89.3630 15.51269609594924
Horyu-4
1 41340U 16012D   26161.10844880  .00337518  00000-0  10043-2 0  9998
2 41340  30.9844 130.8123 0003461 226.4757 133.5616 15.90526809569681
Lapan A3
1 41603U 16040E   26162.90427465  .00003154  00000-0  10090-3 0  9995
2 41603  97.1484 159.2235 0011468  43.2034 317.0107 15.33071180554004
CAS-2T
1 41847U 16066G   26162.69969390  .00001523  00000-0  22073-3 0  9999
2 41847  98.3821 238.4986 0342615 146.0770 216.2856 14.44676189504002
TechnoSat
1 42829U 17042E   26162.39817513  .00003079  00000-0  22080-3 0  9997
2 42829  97.4263 320.2771 0018777 112.5016 247.8201 15.04918472485839
AO-91
1 43017U 17073E   26162.58534500  .00008698  00000-0  38005-3 0  9990
2 43017  97.4718  29.9151 0150450 348.6412  11.1435 15.12626564464549
S-Net D
1 43186U 18014G   26162.72191544  .00004416  00000-0  22915-3 0  9993
2 43186  97.5371  67.5470 0009451  46.9082 313.2940 15.16621821457936
S-Net B
1 43187U 18014H   26162.73326255  .00004765  00000-0  24717-3 0  9993
2 43187  97.5378  67.5446 0009958  42.2656 317.9343 15.16592344457930
S-Net A
1 43188U 18014J   26162.72082205  .00004327  00000-0  22453-3 0  9996
2 43188  97.5388  67.7398 0009847  43.1427 317.0576 15.16629419457936
S-Net C
1 43189U 18014K   26162.67113179  .00004973  00000-0  25777-3 0  9995
2 43189  97.5404  67.7643 0011029  35.4781 324.7183 15.16583570456475
Ten-Koh
1 43677U 18084G   26162.53115580  .00002116  00000-0  16240-3 0  9999
2 43677  98.0781 354.6565 0010975 131.3558 228.8611 15.02920830415316
PO-101
1 43678U 18084H   26162.83481030  .00002667  00000-0  21701-3 0  9998
2 43678  98.1180 358.8112 0012215 187.4845 172.6197 15.00428066415413
QO-100
1 43700U 18090A   26162.62828442  .00000161  00000-0  00000+0 0  9992
2 43700   0.0167 320.3790 0001431 157.1033  34.4948  1.00269967 27622
MinXSS-2
1 43758U 18099A   26162.72209756  .00031185  00000-0  62752-3 0  9992
2 43758  97.4547 238.8477 0006295 277.9918  82.0617 15.46533045413287
AO-95
1 43770U 18099N   26162.11310128  .00010727  00000-0  41211-3 0  9991
2 43770  97.4393 222.3819 0008614  20.0469 340.1107 15.26583130412293
SNUSat 2
1 43782U 18099AA  26162.61273932  .00007491  00000-0  33310-3 0  9995
2 43782  97.4071 216.0820 0008897 321.3467  38.7132 15.21755815412181
SnugLite
1 43784U 18099AC  26162.11537671  .00010460  00000-0  39674-3 0  9994
2 43784  97.3877 216.4553 0001521 337.6782  22.4390 15.27045448412399
ITASat 1
1 43786U 18099AE  26162.68590565  .00006612  00000-0  31860-3 0  9992
2 43786  97.4034 214.3073 0012715  19.6048 340.5673 15.18988570412075
EAGLET 1
1 43790U 18099AJ  26162.62940266  .00003955  00000-0  22801-3 0  9990
2 43790  97.4235 212.4449 0011224  13.4989 346.6540 15.12897029411496
ESEO
1 43792U 18099AL  26162.65911051  .00001966  00000-0  14545-3 0  9991
2 43792  97.3966 200.2837 0011896 358.5401   1.5789 15.04225493410976
JO-97
1 43803U 18099AX  26162.41903211  .00013576  00000-0  42176-3 0  9998
2 43803  97.4135 225.2337 0004121 290.5933  69.4867 15.33467542412740
Suomi 100
1 43804U 18099AY  26162.70662642  .00011026  00000-0  40226-3 0  9993
2 43804  97.4194 223.1205 0008408 302.3070  57.7355 15.28290236412585
ISAT
1 43879U 18111D   26162.79070485  .00088429  00000-0  91873-3 0  9992
2 43879  97.5882  97.5998 0001251  59.2219 300.9163 15.64337273410329
UWE-4
1 43880U 18111E   26162.77811529  .00033079  00000-0  68244-3 0  9991
2 43880  97.5852  90.9210 0006520   5.5235 354.6084 15.45791225409942
Sparrow
1 43881U 18111F   26162.08988774  .00138135  00000-0  10146-2 0  9999
2 43881  97.6115 102.3584 0004611 103.2888 256.8889 15.72684748410418
Prox-1
1 44339U 19036A   26162.63473251  .00012207  00000-0  11914-2 0  9990
2 44339  23.9924 151.3410 0005369 331.4108  28.6097 14.90479846372648
Taurus 1
1 44530U 19059C   26162.80502664  .00005025  00000-0  80794-3 0  9991
2 44530  98.6408 327.2998 0007654 335.2748  24.8090 14.72040742357859
TO-108
1 44881U 19093C   26162.86166634  .00000118  00000-0  19364-4 0  9991
2 44881  97.7532 235.2236 0014977 102.4587 257.8305 14.86508603350625
RS-44
1 44909U 19096E   26162.61066808  .00000028  00000-0  60927-4 0  9991
2 44909  82.5217 343.4113 0217927 157.1662 203.9312 12.79748751301632
SALSAT
1 46495U 20068K   26162.58556220  .00006923  00000-0  24314-3 0  9991
2 46495  97.8849 165.3093 0008526 331.4069  28.6701 15.29719030314503
CSS (TIANHE-1)
1 48274U 21035A   26162.53781053  .00016554  00000-0  19807-3 0  9994
2 48274  41.4693 356.3768 0008209  31.5834 328.5496 15.60566891292282
CUTE
1 49263U 21088D   26162.21741475  .00170126  12795-4  53187-3 0  9993
2 49263  97.4171 260.9418 0007805 241.5311 118.5177 15.91463951261601
TeikyoSat 4
1 49396U 21102B   26162.61866576  .00001857  00000-0  11958-3 0  9997
2 49396  97.3672 192.3186 0010836 318.3974  41.6430 15.09489641251889
Z-Sat
1 49399U 21102E   26162.85947080  .00002630  00000-0  13147-3 0  9998
2 49399  97.3332 198.3438 0014802 265.7820  94.1723 15.18221160252635
KOSEN 1
1 49402U 21102H   26162.63638323  .00006530  00000-0  25045-3 0  9999
2 49402  97.3194 204.9014 0012634 221.0806 138.9483 15.26758585253175
HO-113
1 50466U 21131B   26162.84816355  .00000475  00000-0  16045-3 0  9991
2 50466  98.4973 255.2667 0005293 108.7025 251.4738 14.41352794234344
